Theta_e
308 310 309 309 308 308 308 307 307 307 307 307 307 306 300 304 303 307 312 315 314 311 309 309 317 322 323 321 321 322 324 328 329 330 329 324 326 334 335 339 339 338 334 335 332
308 307 309 309 309 308 307 307 307 306 307 306 306 303 300 301 308 311 310 311 310 310 309 316 319 320 320 322 321 323 324 326 325 326 328 326 323 337 339 339 341 338 334 335 327
308 305 303 305 307 307 306 305 303 303 304 304 303 300 301 306 310 312 307 308 312 312 312 314 318 321 325 323 323 323 326 324 324 325 325 326 326 332 339 340 339 339 335 332 324
309 309 308 304 304 308 308 306 306 305 303 302 301 301 304 308 307 308 305 304 309 312 314 316 319 322 326 328 325 327 324 324 325 325 326 326 326 334 337 336 336 335 333 329 328
308 308 307 308 306 305 306 306 304 303 301 301 301 301 308 306 305 304 304 303 309 311 314 311 316 318 324 327 327 328 327 325 323 322 324 325 328 335 337 335 335 335 332 330 328
307 306 306 308 308 307 306 305 304 302 301 301 305 305 307 305 305 304 305 306 306 309 311 313 313 318 321 323 326 325 326 325 324 324 324 326 328 334 335 334 335 335 333 331 329
307 306 305 306 307 307 306 305 303 302 300 300 305 307 307 306 304 305 305 306 306 306 310 312 314 316 319 322 322 325 327 326 326 325 325 327 333 335 335 335 336 335 333 332 330
307 306 306 306 306 306 305 304 302 300 300 302 303 307 307 305 305 304 304 304 307 308 309 311 313 316 316 318 321 325 324 324 322 323 325 327 331 331 334 337 338 336 328 326 323
307 306 307 306 306 306 305 302 300 301 301 304 306 308 305 303 303 303 303 304 305 308 308 309 315 315 315 318 319 323 325 324 324 322 322 326 330 330 330 336 331 326 324 319 315
307 306 307 306 306 305 301 301 304 304 305 306 306 304 305 302 304 304 305 306 307 308 308 312 312 313 314 316 318 320 323 321 322 319 317 324 328 330 331 333 328 325 321 317 316
307 306 306 306 305 301 304 305 301 302 300 302 302 301 302 303 305 305 305 306 307 308 308 307 311 311 311 314 315 319 319 320 321 315 316 320 320 330 330 331 327 323 320 317 315
307 307 306 305 302 305 305 304 303 302 301 303 302 301 303 305 306 305 305 306 307 308 306 306 308 308 311 312 314 317 318 318 314 315 315 315 316 315 327 329 326 323 321 317 311
306 306 306 303 304 304 302 303 304 304 303 303 301 303 305 306 305 304 305 304 306 306 307 308 307 307 312 312 314 315 318 315 317 313 314 314 319 321 326 327 324 322 320 315 311
307 306 304 301 304 304 303 303 303 303 296 301 302 305 304 303 303 304 304 304 307 308 307 307 307 306 307 312 313 316 314 315 314 316 321 314 321 315 316 327 324 322 318 312 311
306 305 301 305 303 304 302 301 301 301 287 297 300 302 303 302 302 306 307 306 308 307 307 306 308 307 309 310 310 314 315 317 315 316 316 316 320 319 320 319 326 322 318 312 310
305 302 302 303 302 301 300 301 301 293 292 298 300 300 301 301 302 303 303 305 306 307 306 305 305 307 308 309 310 312 314 315 315 316 319 317 319 319 324 321 321 322 317 312 309
303 301 304 303 303 299 300 301 293 289 294 293 299 300 300 301 303 303 303 302 303 304 298 304 304 305 308 310 310 313 316 317 318 318 317 317 318 316 321 321 320 318 314 309 306
301 301 300 300 299 301 302 293 288 287 291 298 301 300 301 303 302 302 301 301 302 302 304 301 301 306 309 309 310 313 316 318 320 320 319 317 319 319 317 318 317 317 314 308 306
300 301 300 300 300 302 295 291 292 293 299 296 297 296 298 302 299 300 301 299 302 305 307 304 302 303 306 307 310 309 312 312 315 317 322 321 320 318 314 318 318 317 310 307 306
301 302 299 299 300 301 292 296 292 298 299 296 295 299 295 296 294 293 297 300 305 304 303 306 306 303 307 309 311 309 311 311 315 320 320 320 321 320 314 318 317 315 307 306 305
302 299 299 298 301 293 291 294 295 298 298 299 295 297 299 298 298 290 293 300 303 302 303 304 305 304 307 311 313 310 309 312 314 316 320 320 319 309 313 317 315 313 308 306 304
301 293 299 299 291 295 295 286 298 298 299 299 297 297 299 300 296 297 293 298 301 303 303 303 307 299 303 305 309 311 309 310 308 310 315 315 316 303 304 305 314 311 307 302 302
299 296 298 300 290 295 296 294 297 298 298 298 298 298 299 300 299 295 293 300 300 302 304 304 307 292 296 301 308 310 310 311 311 311 314 316 315 304 304 310 311 310 305 303 302
297 297 294 294 293 298 286 287 291 297 298 299 299 299 299 299 298 293 294 299 299 301 301 303 308 300 299 307 307 308 307 309 311 309 312 314 314 308 307 309 310 309 306 305 304
296 297 293 288 291 293 294 290 290 293 297 298 298 297 299 296 298 293 293 299 299 299 298 299 303 305 301 305 307 307 308 309 312 310 313 312 315 307 306 308 306 308 306 305 302
298 294 294 295 296 295 296 294 295 294 296 294 298 298 298 295 297 295 298 299 299 298 298 298 298 303 300 302 305 307 308 309 308 309 310 311 313 306 304 305 304 303 302 300 299
298 296 296 295 295 294 294 295 297 296 296 297 297 297 298 297 297 297 296 296 296 297 299 298 299 303 301 303 305 302 302 306 306 308 310 312 310 304 304 305 304 302 301 300 298
Wind_Speed
5 6 6 7 8 10 11 12 14 16 18 19 19 20 20 20 20 10 6 8 12 17 17 19 14 12 12 4 6 1 2 5 5 6 11 18 7 3 6 7 4 5 10 20 32
6 5 5 6 7 8 10 11 12 14 15 17 19 21 21 20 17 7 7 9 13 15 14 11 6 12 3 3 5 6 5 8 8 11 15 18 7 7 6 7 4 5 11 35 36
7 7 6 7 7 9 10 11 13 15 16 18 20 21 22 15 3 2 11 11 11 11 5 5 5 2 3 3 4 4 9 4 13 15 16 16 20 7 14 4 8 18 24 19 24
10 9 9 8 7 8 9 10 11 12 13 16 18 20 19 5 4 3 13 16 10 9 3 2 3 2 3 8 8 11 9 8 16 21 12 13 14 6 5 7 16 20 28 15 19
10 9 10 10 8 9 10 10 11 12 14 15 17 19 9 4 2 11 15 16 9 13 3 2 3 7 9 3 9 17 9 11 10 18 18 12 12 9 1 12 22 22 16 17 16
12 10 10 9 9 9 10 11 12 12 13 14 15 16 4 3 5 12 12 14 13 11 12 4 4 2 9 6 13 8 8 13 12 18 15 16 7 3 2 16 20 22 19 17 15
11 9 9 9 9 9 10 12 12 13 13 13 13 10 4 6 10 9 14 14 14 14 6 11 7 5 3 6 7 6 10 14 22 18 12 3 6 5 7 13 19 18 18 17 14
10 9 8 9 9 10 11 13 14 14 15 12 9 5 4 6 6 14 15 16 13 15 13 13 8 5 4 6 5 5 9 16 17 23 14 10 22 4 10 18 18 18 13 13 10
9 8 8 7 8 9 11 14 14 14 10 6 3 2 6 7 13 21 16 11 15 13 13 15 2 4 3 7 9 7 9 8 10 16 12 9 9 12 9 17 17 12 12 12 8
9 7 6 5 6 8 11 14 8 7 4 1 6 3 1 5 17 21 9 11 7 7 7 3 1 4 3 6 12 12 7 10 12 5 7 14 17 15 15 17 17 15 13 12 10
8 5 4 3 3 6 11 4 6 3 6 1 5 3 5 17 12 7 15 7 5 2 3 5 3 6 11 12 15 9 6 10 7 5 3 8 12 15 17 15 16 14 13 14 11
7 5 5 2 4 4 5 5 3 1 5 7 3 4 10 6 5 9 10 5 5 6 5 4 10 15 9 12 13 16 14 8 3 0 5 4 15 11 17 19 20 19 15 15 12
7 7 6 5 5 8 10 6 4 1 1 3 1 2 3 4 5 5 3 5 5 6 7 7 14 9 10 12 13 13 13 6 1 2 2 3 6 6 14 10 14 14 13 14 15
9 9 7 6 3 4 3 2 2 1 4 4 1 1 3 3 4 14 0 1 3 5 5 8 7 11 13 10 6 13 10 14 5 3 3 2 4 2 13 10 15 16 16 17 16
11 10 8 1 3 2 1 0 1 2 5 5 5 2 5 1 5 3 2 1 5 9 3 7 11 12 14 15 10 7 7 11 8 9 4 4 3 1 8 9 10 18 19 17 17
12 10 8 3 2 2 1 0 1 6 3 4 4 5 7 5 3 5 5 3 6 7 7 15 8 5 11 5 8 5 3 5 5 3 7 11 6 5 6 10 8 12 16 18 18
13 12 5 3 2 1 0 2 5 5 4 7 4 5 7 4 5 6 5 6 3 6 3 13 6 9 7 3 5 2 4 4 6 6 5 17 8 13 9 7 13 11 14 16 16
14 8 4 5 3 1 1 5 6 4 4 3 4 9 3 6 4 7 6 5 5 5 7 4 8 2 2 5 6 7 4 5 3 4 4 10 8 5 3 3 10 16 14 15 15
13 8 3 3 2 1 4 4 7 5 2 2 6 5 4 3 3 6 4 3 2 7 3 4 6 4 4 7 1 4 5 1 6 3 3 5 2 3 1 5 5 16 17 16 14
11 6 2 1 1 2 4 3 2 1 2 4 2 3 3 5 6 6 3 3 5 6 8 4 8 5 1 4 5 7 2 2 1 4 1 2 3 1 4 6 7 16 16 15 14
7 3 1 1 2 5 3 4 2 4 3 2 2 2 3 3 2 3 5 7 3 8 8 7 6 6 3 1 4 2 4 4 4 3 2 3 2 2 6 9 15 16 16 16 15
6 2 1 1 4 1 2 5 2 4 3 2 2 2 4 4 3 3 5 3 4 4 12 4 3 3 7 5 7 4 5 6 2 3 3 3 2 2 4 1 6 11 13 13 12
3 2 4 1 3 2 1 3 2 4 3 4 3 5 5 2 4 4 4 4 6 6 4 4 2 3 9 5 3 1 7 5 4 2 3 0 2 1 4 4 9 15 13 13 14
3 2 3 3 1 5 4 3 2 4 3 3 3 2 1 5 6 5 4 6 10 2 13 8 3 3 4 3 2 4 8 8 3 1 4 2 2 3 3 6 9 13 14 14 14
2 3 4 2 4 3 5 6 2 2 3 4 3 6 4 3 4 4 4 6 5 6 8 4 3 3 5 7 5 5 5 5 2 3 2 3 4 5 1 4 6 11 13 13 13
4 4 1 2 3 5 4 4 7 3 6 4 4 3 5 6 7 6 4 2 4 5 6 7 4 4 4 6 3 7 9 7 6 3 6 6 1 5 3 5 5 12 14 15 15
4 3 4 4 3 4 4 6 6 6 5 5 7 2 6 12 7 9 6 5 5 4 4 3 4 4 4 5 5 7 8 11 4 5 6 7 5 5 0 4 6 8 12 14 15
Wind_Direction
356 6 3 4 5 4 5 3 2 1 359 354 351 349 347 342 340 10 36 333 322 322 327 322 333 328 310 229 195 194 239 201 244 264 269 279 264 78 57 94 30 330 158 149 161
355 341 353 347 347 353 356 356 355 357 355 351 347 346 344 342 342 38 24 357 327 326 334 358 349 345 298 266 207 178 204 220 193 247 263 289 261 160 111 139 71 55 103 143 156
343 343 329 337 338 342 345 346 349 350 349 349 348 348 345 337 315 70 7 351 345 350 323 315 331 341 264 259 223 242 233 242 264 256 259 284 309 224 143 170 168 149 146 143 150
309 307 312 316 320 321 327 333 336 340 342 344 347 350 350 1 63 19 1 344 334 329 314 358 336 272 243 231 230 257 264 261 262 269 278 279 296 226 161 185 147 162 151 143 146
304 303 300 294 303 312 317 324 329 333 337 341 346 349 1 2 313 353 342 346 350 358 245 242 285 278 250 245 251 252 271 281 304 308 295 279 286 246 19 127 136 146 142 147 146
291 290 298 292 290 300 310 315 319 324 327 334 341 345 354 347 358 342 349 344 335 334 324 256 213 296 292 273 247 300 284 274 290 290 296 272 245 264 296 130 138 151 155 152 153
289 285 284 288 288 294 301 307 312 316 321 329 332 340 288 248 324 356 347 335 316 296 270 294 268 172 343 270 273 241 239 282 272 272 288 269 254 213 157 146 145 157 157 161 163
283 290 283 285 290 295 300 307 310 313 316 320 325 330 255 316 335 342 330 330 327 330 273 268 291 222 216 301 275 226 230 243 263 266 272 223 250 185 174 155 154 159 145 135 126
284 282 277 279 286 295 306 311 311 315 321 327 348 198 288 353 344 323 312 304 305 314 308 288 142 214 259 239 265 240 223 225 257 251 262 260 237 182 213 162 142 155 152 134 127
282 276 262 272 286 310 322 316 325 324 348 118 278 342 276 323 328 313 326 307 268 283 327 224 179 238 262 218 230 235 245 224 226 20 340 281 272 179 186 171 164 162 158 143 159
267 259 243 250 310 345 353 4 14 3 29 300 282 253 287 308 322 293 308 312 288 287 266 273 230 244 240 232 240 284 223 272 207 85 80 304 310 203 191 175 164 160 161 152 167
248 219 203 181 56 14 30 73 130 167 326 295 238 261 291 3 302 322 353 357 352 303 285 310 258 249 259 280 247 238 255 243 275 171 119 324 300 314 211 187 170 163 170 161 157
210 191 173 138 115 58 85 103 130 225 274 290 179 316 302 332 304 287 354 322 283 285 289 260 258 288 203 283 253 241 242 214 309 229 88 306 254 297 236 189 167 165 162 158 164
183 171 156 143 111 160 59 77 83 162 69 317 304 247 322 284 270 300 246 302 307 303 307 265 311 272 254 256 259 264 219 221 199 178 236 168 278 258 300 197 175 166 169 163 162
167 161 149 126 134 104 154 103 348 120 34 284 312 314 267 189 263 276 181 275 252 264 301 257 306 317 310 249 230 254 188 217 191 186 175 156 254 165 184 282 205 179 174 167 160
161 149 141 122 102 135 210 50 95 44 278 339 303 351 355 293 266 277 301 216 246 273 245 260 248 217 241 286 247 270 232 275 198 203 233 188 170 200 191 217 216 189 171 163 151
156 153 165 181 154 118 298 43 37 110 326 306 332 343 328 289 312 20 322 311 289 328 350 317 263 235 204 251 285 147 224 227 215 188 227 165 179 243 210 156 192 198 168 153 143
158 159 112 123 130 131 356 53 77 232 240 319 319 306 299 5 322 336 311 313 282 228 289 260 322 266 217 208 211 201 221 256 220 180 184 152 208 266 170 153 145 179 178 157 152
151 126 98 85 105 37 69 61 197 208 246 16 330 44 320 8 17 352 306 252 288 34 317 307 273 316 240 195 218 261 213 123 310 257 172 169 275 280 134 209 224 178 158 167 161
145 128 64 74 55 68 74 206 184 213 328 79 124 30 315 308 14 23 292 280 338 44 14 299 299 273 316 24 225 226 195 54 78 291 86 55 337 256 206 223 126 160 162 164 153
140 73 13 70 58 48 138 213 220 224 241 145 229 301 277 306 282 280 259 304 9 327 336 264 220 281 343 332 306 244 249 255 160 250 330 121 253 200 197 197 175 170 166 162 153
127 68 14 134 56 57 158 188 251 221 183 245 163 213 227 280 284 277 245 227 46 1 315 255 273 265 227 264 151 256 255 210 151 271 260 248 214 295 265 161 156 154 142 134 137
111 129 54 38 140 194 216 295 267 194 199 196 233 200 213 278 305 239 277 293 330 345 318 342 261 4 339 357 359 218 338 267 288 83 235 298 311 357 279 85 148 146 144 142 142
104 119 340 32 233 144 150 257 285 217 219 216 262 298 307 279 213 272 292 294 318 210 313 296 296 159 191 207 192 298 318 323 254 82 313 266 347 348 17 95 128 145 155 163 162
57 193 189 206 262 166 152 159 174 254 214 203 283 204 200 278 283 241 273 300 294 3 346 17 294 327 263 259 230 251 262 297 290 236 158 302 24 330 293 170 127 142 146 156 162
139 137 56 165 97 122 188 226 193 247 163 247 217 229 216 231 203 260 255 273 264 331 340 338 296 311 293 280 274 273 257 244 239 244 250 285 189 286 335 92 124 147 156 162 174
154 119 114 164 151 122 212 207 208 179 219 198 207 229 265 255 238 249 233 231 250 320 310 318 316 318 281 339 331 296 225 235 236 210 180 225 190 178 253 183 183 163 169 171 175